Regional Weather Roundup
Issued by NWS

Home | Current Version | Previous Version | Text Only | Print | Product List | Glossary On
Versions: 1 2 3 4 5 6 7 8 9 10 11 12 13 14 15 16 17 18 19 20 21 22 23 24 25 26 27 28 29 30 31 32 33 34 35 36 37 38 39 40 41 42 43 44 45 46 47 48 49 50
000
ASUS43 KLSX 041107
RWRMO

WEATHER SUMMARY FOR MISSOURI
NATIONAL WEATHER SERVICE SPRINGFIELD MO
600 AM CDT MON MAY 04 2015

NOTE: "FAIR" INDICATES FEW OR NO CLOUDS BELOW 12,000 FEET WITH NO
       SIGNIFICANT WEATHER AND/OR OBSTRUCTIONS TO VISIBILITY.
       CURRENT SKY AND/OR WEATHER CONDITIONS ARE NOT AVAILABLE FOR
       CHILLICOTHE AND FARMINGTON.

MOZ001>031-035>038-043-044-053-054-041200-
...NORTHERN AND WESTERN MISSOURI...

CITY           SKY/WX    TMP DP  RH WIND       PRES   REMARKS
KANSAS CTY INT CLOUDY    62  55  77 S8        29.97F
KANSAS C DTWN  CLOUDY    66  55  67 S3        29.97S
LEE`S SUMMIT   CLOUDY    64  55  72 CALM      30.00R
ST JOSEPH      CLOUDY    66  57  72 S12       29.92F
CHILLICOTHE      N/A     62  60  93 CALM      29.96F
KIRKSVILLE     CLOUDY    66  58  75 SW3       29.98S

$$
MOZ066>068-077>081-088>096-101>105-041200-
...SOUTHWEST MISSOURI...

CITY           SKY/WX    TMP DP  RH WIND       PRES   REMARKS
SPRINGFIELD    MOCLDY    62  55  77 SE9       30.05R
JOPLIN         CLOUDY    67  54  63 S12       30.03R

$$
MOZ032>034-039>042-045>050-055>058-069>072-041200-
...CENTRAL MISSOURI...

CITY           SKY/WX    TMP DP  RH WIND       PRES   REMARKS
COLUMBIA       CLOUDY    64  56  75 SW10      30.02S
JEFFERSON CITY CLOUDY    65  55  70 CALM      30.02S
ROLLA          CLOUDY    62  56  80 S9        30.05R
SEDALIA        MOCLDY    65  56  72 S9        30.01R
WHITEMAN AFB   LGT RAIN  63  58  82 SW8       29.99R
WARRENSBURG    CLOUDY    63  55  77 S5        30.00R
OSAGE BEACH    CLOUDY    61  54  77 CALM      30.04S

$$
MOZ051-052-059>065-041200-
...EAST CENTRAL MISSOURI...

CITY           SKY/WX    TMP DP  RH WIND       PRES   REMARKS
ST LOUIS INTL  LGT RAIN  70  55  59 SW9       30.05R
SPIRIT OF STL  LGT RAIN  66  58  75 S6        30.04R
ST CHARLES     CLOUDY    66  59  78 SW5       30.03R

$$
MOZ072>076-082>087-097>100-106>115-041200-
...SOUTH CENTRAL AND SOUTHEAST MISSOURI...

CITY           SKY/WX    TMP DP  RH WIND       PRES   REMARKS
CAPE GIRARDEAU PTCLDY    64  50  60 SW5       30.10R
FARMINGTON     CLOUDY    63  54  72 CALM      30.13R
POPLAR BLUFF   PTCLDY    60  53  77 S3        30.09R
WEST PLAINS    CLOUDY    66  54  65 S6        30.10R

$$


USA.gov is the U.S. government's official web portal to all federal, state and local government web resources and services.